COSMOS 1691 DEB, 43317

Orbit data source: Space-Track

COSMOS 1691 DEB, 43317 is space debris in LEO originally from a launch on Wed, 09 Oct 1985 UTC launched from the Plesetsk Missile And Space Complex (PKMTR). Debris objects in space refer to the collection of defunct objects orbiting the Earth. Examples of debris include non-operational satellites, rocket bodies, and fragments generated from explosions, collisions, or faulty payload assembly.

Loading next visibility...
Identifier
43317, 1985-094AB
Orbit
LEO
Country
Flag of CISCIS
Related business
Manufacturer
Unknown
Mission
Spacecraft
Bus & Motor
Unknown
Mass
Unknown
Launch date (UTC)
1985-10-09 (40 years ago)
Launch vehicle
Unknown
Launch site
Plesetsk Missile And Space Complex (PKMTR)
Object type
Payload
Rocket body
Debris
Shape & HBR
Unknown
Radar Cross Section
Small (<0.1 m²)

Expand to show TLE details & history
Last TLE update: 2 days ago

TLE from 2 days ago
0 COSMOS 1691 DEB
1 43317U 85094AB  25241.72310369  .00000416  00000-0  18691-2 0  9997
2 43317  82.5525 241.9281 0011012 321.8685  38.1634 12.76580625548062
Epoch: 2025-08-29T17:21Z
TLE epoch observation values (Epoch: 2025-08-29T17:21:16.158Z)
Latitude
-0.00005°
Longitude
3.44311°
Altitude
1,351.305 km
Speed
7.186 km/s
True Right ascension
16h 07m 42s
True Declination
0° 00' 00"
Sunlit
Object was in daylight at epoch
Visualization orbit readout
Latitude
Unknown
Longitude
Unknown
Altitude
Unknown
Speed
Unknown
Apparent Right ascension
Unknown
Apparent Declination
Unknown
Sunlit
N/A
Visualization observer readout
Local Sidereal Time
22:13:01
Azimuth
Unknown
Elevation
Unknown
Doppler factor
Unknown
Orbital elements
Apogee altitude
1,361.063 km
Perigee altitude
1,344.037 km
Semi-major axis
7,730.687 km
Eccentricity
0.0011
Inclination
82.5525°
RAAN
241.9281°
Arg. of periapsis
321.8685°
True anomaly
38.24146°
Mean anomaly
38.1634°
Eccentric anomaly
38.20242°
Mean motion
3.19313 °/min
Orbital period
112.74 mins
BSTAR
0.0018691
Loading maneuver chart data...
Computing Atmospheric mass density...
Loading historical data...
Loading historical data...
Loading historical data...
Loading historical data...
Loading historical data...
Loading historical data...
Loading historical data...

Documentation

Showing up to 5 results
|